Location: Unspecified
(48.5670°N, 0.0000°E)
Time: 10:35:18
(UTC+00:00)

Tiros 1 - Pass Details

Date: 24 October 2020
Orbit: 630 x 664 km, 48.4° (Epoch: 03 December)

Event Time Altitude Azimuth Distance (km) Brightness Sun altitude
Exits shadow 05:46:09 - 237° (WSW) 2,610 9.8 -8.6°
Reaches altitude 10° 05:47:44 10° 233° (SW) 2,003 9.3 -8.3°
Maximum altitude 05:52:13 53° 157° (SSE) 772 7.8 -7.6°
Drops below altitude 10° 05:56:43 10° 81° (E) 2,012 11.1 -6.9°
Sets 05:59:05 0° 77° (ENE) 2,925 11.9 -6.5°
